Torna al catalogo

Sitro-AIS-65

AttivoComunicazioniSSO
NORAD 67266·PAYLOAD·🇷🇺 Russia

Lanciato Dec 28, 2025 da Vostochny Cosmodrome

Loading…

Prossimi Passaggi (prossime 24 ore)

TLE

AggiornatoSource: Space-Track

Epoca: Sep 13, 2026, 22:39 UTC

1 67266U 25313U   26256.94396789  .00007870  00000-0  31941-3 0  9990
2 67266  97.3889 330.4718 0014997  55.2477 305.0170 15.24769867 39473

Traccia Sitro-AIS-65 in tempo reale con AllMySat

Download on the App Store